This is the latest recevied weather packets stored in our database for station/object KE8DAF-15. If no packets are shown the sender has not sent any weather packets the latest 10 day(s).
| Time | Temp. | Humidity | Pressure | Rain* | Wind** | Luminosity | Snow |
|---|---|---|---|---|---|---|---|
| 1778000700 | 10.56° C | 47% | 992.1 hPa | 0 mm | - | - | - |
| 1778000400 | 10° C | 49% | 992 hPa | 0 mm | - | - | - |
| 1778000101 | 10° C | 49% | 991.9 hPa | 0 mm | - | - | - |
| 1777999800 | 10° C | 49% | 992 hPa | 0 mm | - | - | - |
| 1777999501 | 9.44° C | 48% | 991.9 hPa | 0 mm | - | - | - |
| 1777999201 | 10° C | 49% | 991.9 hPa | 0 mm | - | - | - |
| 1777998901 | 10° C | 48% | 991.8 hPa | 0 mm | - | - | - |
| 1777998601 | 9.44° C | 53% | 992 hPa | 0 mm | - | - | - |
| 1777998301 | 8.89° C | 54% | 991.9 hPa | 0 mm | - | - | - |
| 1777998001 | 9.44° C | 50% | 991.9 hPa | 0 mm | - | - | - |
| 1777997701 | 8.89° C | 54% | 991.8 hPa | 0 mm | - | - | - |
| 1777997401 | 8.89° C | 63% | 991.9 hPa | 0 mm | - | - | - |
| 1777997101 | 8.33° C | 63% | 992 hPa | 0 mm | - | - | - |
| 1777996801 | 7.78° C | 62% | 992 hPa | 0 mm | - | - | - |
| 1777996501 | 8.33° C | 66% | 992.1 hPa | 0 mm | - | - | - |
| 1777996201 | 7.78° C | 66% | 992 hPa | 0 mm | - | - | - |
| 1777995901 | 7.78° C | 67% | 991.9 hPa | 0 mm | - | - | - |
| 1777995601 | 7.78° C | 64% | 991.8 hPa | 0 mm | - | - | - |
| 1777995301 | 7.78° C | 66% | 991.8 hPa | 0 mm | - | - | - |
| 1777995001 | 7.78° C | 65% | 991.9 hPa | 0 mm | - | - | - |
| 1777994701 | 7.22° C | 64% | 991.9 hPa | 0 mm | - | - | - |
| 1777994401 | 7.22° C | 64% | 992 hPa | 0 mm | - | - | - |
| 1777994101 | 7.22° C | 68% | 992 hPa | 0 mm | - | - | - |
| 1777993801 | 7.22° C | 73% | 992 hPa | 0 mm | - | - | - |
| 1777993501 | 7.22° C | 71% | 991.8 hPa | 0 mm | - | - | - |
* Rain latest hour (hover to see other rain measurements)
** Current wind speed in m/s (hover to see current wind gust speed)